Andrews, NC

8:44 AM EDT on May 25, 2017 (GMT -0400)
Andrews

Weather History for KRHP - October, 2013

Change the Weather History Date:

Saturday, October 19, 2013

  Actual Average (KMMI) Record (KMMI)
Temperature  
Mean Temperature 54 °F -  
Max Temperature 63 °F 69 °F 87 °F (2016)
Min Temperature 44 °F 42 °F 33 °F (2015)
Degree Days  
Heating Degree Days 12    
Growing Degree Days 4 (Base 50)    
Moisture  
Dew Point 49 °F    
Average Humidity 89    
Maximum Humidity 99    
Minimum Humidity 56    
Precipitation  
Precipitation 0.00 in - - ()
Sea Level Pressure  
Sea Level Pressure 29.97 in    
Wind  
Wind Speed 1 mph (WSW)    
Max Wind Speed 10 mph    
Max Gust Speed 18 mph    
Visibility 10 miles    
Events Rain    
Averages and records for this station are not official NWS values.
T = Trace of Precipitation, MM = Missing Value Source: NWS Daily Summary

Daily Weather History Graph

Daily Weather History Graph

Search for Another Location

Airport or City:

Trip Planner

Search our weather history database for the weather conditions in past years. The results will help you decide how hot, cold, wet, or windy it might be!

Date:

Astronomy

Oct. 19, 2013 Rise Set
Actual Time 7:45 AM EDT 6:54 PM EDT
Civil Twilight 7:19 AM EDT 7:20 PM EDT
Nautical Twilight 6:49 AM EDT 7:50 PM EDT
Astronomical Twilight 6:20 AM EDT 8:19 PM EDT
Moon 7:24 PM EDT (10/19) 8:19 AM EDT (10/19)
Length of Visible Light 12h 01m
Length of Day
11h 09m
Waxing Gibbous, 99% of the Moon is Illuminated
Oct 19
Waxing Gibbous
Oct 26
Last Quarter
Nov 3
New
Nov 10
First Quarter
Nov 17
Full

Hourly Weather History & Observations

Time (EDT) Temp. Dew Point Humidity Pressure Visibility Wind Dir Wind Speed Gust Speed Precip Events Conditions
12:15 AM 49.3 °F 48.6 °F 97% 30.01 in 10.0 mi Calm Calm - N/A   Scattered Clouds
12:35 AM 49.5 °F 48.7 °F 97% 30.00 in 10.0 mi Calm Calm - N/A   Mostly Cloudy
12:55 AM 49.6 °F 49.1 °F 98% 30.00 in 10.0 mi Calm Calm - N/A   Mostly Cloudy
1:15 AM 50.0 °F 49.3 °F 97% 30.00 in 10.0 mi Calm Calm - N/A   Mostly Cloudy
1:35 AM 50.0 °F 49.1 °F 97% 30.00 in 10.0 mi Calm Calm - N/A   Mostly Cloudy
1:55 AM 50.4 °F 49.6 °F 97% 30.00 in 10.0 mi Calm Calm - N/A   Scattered Clouds
2:15 AM 50.2 °F 49.5 °F 97% 29.99 in 10.0 mi Calm Calm - N/A   Scattered Clouds
2:35 AM 50.4 °F 49.6 °F 97% 29.98 in 10.0 mi Calm Calm - N/A   Scattered Clouds
2:55 AM 50.4 °F 49.6 °F 97% 29.98 in 10.0 mi Calm Calm - N/A   Scattered Clouds
3:15 AM 50.5 °F 50.0 °F 98% 29.98 in 10.0 mi Calm Calm - N/A   Mostly Cloudy
3:35 AM 50.4 °F 49.5 °F 97% 29.98 in 10.0 mi Calm Calm - N/A   Scattered Clouds
3:55 AM 50.0 °F 49.3 °F 97% 29.97 in 10.0 mi Calm Calm - N/A   Clear
4:15 AM 50.0 °F 49.5 °F 98% 29.97 in 10.0 mi Calm Calm - N/A   Clear
4:35 AM 50.4 °F 49.6 °F 97% 29.97 in 10.0 mi Calm Calm - N/A   Mostly Cloudy
4:55 AM 50.5 °F 49.8 °F 97% 29.97 in 10.0 mi Calm Calm - N/A   Overcast
5:15 AM 50.2 °F 49.8 °F 99% 29.98 in 10.0 mi Calm Calm - N/A   Overcast
5:35 AM 50.2 °F 49.6 °F 98% 29.97 in 10.0 mi Calm Calm - N/A   Overcast
5:55 AM 50.2 °F 49.6 °F 98% 29.97 in 7.0 mi Calm Calm - N/A   Overcast
6:15 AM 50.4 °F 49.8 °F 98% 29.97 in 10.0 mi Calm Calm - N/A   Overcast
6:35 AM 50.4 °F 49.8 °F 98% 29.97 in 10.0 mi Calm Calm - N/A   Overcast
6:55 AM 50.5 °F 49.5 °F 96% 29.96 in 10.0 mi Calm Calm - N/A   Overcast
7:15 AM 50.5 °F 49.6 °F 97% 29.96 in 10.0 mi Calm Calm - N/A   Overcast
7:35 AM 50.4 °F 49.8 °F 98% 29.97 in 10.0 mi Calm Calm - N/A   Overcast
7:55 AM 50.4 °F 49.6 °F 97% 29.97 in 10.0 mi Calm Calm - N/A   Overcast
8:15 AM 50.4 °F 50.0 °F 99% 29.97 in 7.0 mi Calm Calm - N/A   Overcast
8:35 AM 50.5 °F 50.0 °F 98% 29.97 in 7.0 mi Calm Calm - N/A   Mostly Cloudy
8:55 AM 51.1 °F 50.2 °F 97% 29.97 in 10.0 mi Calm Calm - N/A   Mostly Cloudy
9:15 AM 52.0 °F 50.9 °F 96% 29.97 in 10.0 mi Calm Calm - N/A   Mostly Cloudy
9:35 AM 52.0 °F 50.7 °F 95% 29.97 in 10.0 mi Calm Calm - N/A   Scattered Clouds
9:55 AM 52.7 °F 51.1 °F 94% 29.98 in 10.0 mi Calm Calm - N/A   Scattered Clouds
10:15 AM 53.8 °F 51.8 °F 93% 29.98 in 10.0 mi Calm Calm - N/A   Scattered Clouds
10:35 AM 54.9 °F 52.2 °F 91% 29.98 in 10.0 mi Calm Calm - N/A   Scattered Clouds
10:55 AM 55.6 °F 51.6 °F 87% 29.99 in 10.0 mi Calm Calm - N/A   Scattered Clouds
11:15 AM 56.7 °F 52.7 °F 87% 29.99 in 10.0 mi West 3.5 mph - N/A   Clear
11:35 AM 57.2 °F 53.1 °F 86% 29.99 in 10.0 mi West 3.5 mph - N/A   Scattered Clouds
11:55 AM 58.1 °F 53.1 °F 83% 29.97 in 10.0 mi Calm Calm - N/A Rain Light Rain
12:15 PM 58.1 °F 52.7 °F 82% 29.97 in 10.0 mi Calm Calm - N/A   Scattered Clouds
12:35 PM 59.9 °F 50.5 °F 71% 29.99 in 10.0 mi West 8.1 mph - N/A   Scattered Clouds
12:55 PM 59.7 °F 48.9 °F 67% 29.98 in 10.0 mi SW 5.8 mph - N/A   Scattered Clouds
2:55 PM 61.0 °F 48.6 °F 64% 29.95 in 10.0 mi WSW 10.4 mph - N/A   Overcast
3:15 PM 61.7 °F 47.8 °F 60% 29.94 in 10.0 mi WSW 6.9 mph 18.4 mph N/A   Overcast
3:35 PM 61.9 °F 47.5 °F 59% 29.94 in 10.0 mi WSW 9.2 mph - N/A   Mostly Cloudy
3:55 PM 61.2 °F 47.3 °F 60% 29.95 in 10.0 mi WSW 6.9 mph 16.1 mph N/A   Scattered Clouds
4:15 PM 63.9 °F 48.0 °F 56% 29.94 in 10.0 mi SW 8.1 mph - N/A   Clear
4:35 PM 63.5 °F 47.7 °F 56% 29.94 in 10.0 mi SW 5.8 mph - N/A   Clear
4:55 PM 63.5 °F 48.0 °F 57% 29.94 in 10.0 mi SSW 3.5 mph - N/A   Scattered Clouds
5:15 PM 61.2 °F 48.6 °F 63% 29.94 in 10.0 mi Calm Calm - N/A   Scattered Clouds
5:35 PM 60.4 °F 50.5 °F 70% 29.94 in 10.0 mi NNW 4.6 mph - N/A   Overcast
5:55 PM 60.1 °F 51.3 °F 73% 29.94 in 10.0 mi Calm Calm - N/A   Overcast
6:15 PM 59.4 °F 51.4 °F 75% 29.95 in 10.0 mi Calm Calm - N/A   Overcast
6:35 PM 59.0 °F 51.4 °F 76% 29.95 in 10.0 mi Calm Calm - N/A   Overcast
6:55 PM 56.1 °F 50.9 °F 83% 29.95 in 10.0 mi Calm Calm - N/A   Scattered Clouds
7:15 PM 53.8 °F 50.0 °F 87% 29.96 in 10.0 mi Calm Calm - N/A   Clear
7:35 PM 53.8 °F 49.8 °F 86% 29.96 in 10.0 mi Calm Calm - N/A   Clear
7:55 PM 51.1 °F 49.3 °F 94% 29.97 in 10.0 mi Calm Calm - N/A   Clear
8:15 PM 49.6 °F 47.8 °F 94% 29.97 in 10.0 mi Calm Calm - N/A   Clear
8:35 PM 49.5 °F 47.8 °F 94% 29.97 in 10.0 mi Calm Calm - N/A   Clear
8:55 PM 48.7 °F 47.5 °F 95% 29.98 in 10.0 mi Calm Calm - N/A   Clear
9:15 PM 47.5 °F 46.9 °F 98% 29.98 in 10.0 mi Calm Calm - N/A   Clear
9:35 PM 46.9 °F 46.0 °F 97% 29.99 in 10.0 mi Calm Calm - N/A   Clear
9:55 PM 46.8 °F 46.0 °F 97% 29.99 in 10.0 mi Calm Calm - N/A   Clear
10:15 PM 45.5 °F 45.0 °F 98% 30.00 in 7.0 mi Calm Calm - N/A   Clear
10:35 PM 44.8 °F 44.1 °F 97% 30.00 in 10.0 mi Calm Calm - N/A   Clear
10:55 PM 44.6 °F 44.1 °F 98% 30.01 in 7.0 mi Calm Calm - N/A   Clear
11:15 PM 44.1 °F 43.7 °F 99% 30.01 in 5.0 mi Calm Calm - N/A   Scattered Clouds
11:35 PM 45.0 °F 44.8 °F 99% 30.01 in 1.0 mi Calm Calm - N/A   Overcast
11:55 PM 44.8 °F 44.2 °F 98% 30.01 in 10.0 mi Calm Calm - N/A   Overcast